Temperature
14 14 14 14 14 14 15 15 15 14 14 14 14 14 13 13 13 13 13 13 13 12 12 12 12 12 12 11 11 11 11 11 10 10 10 10 10 10 10 10 10 9 9
14 14 14 14 14 14 14 14 14 14 14 14 14 14 13 13 13 13 13 12 12 12 12 12 12 12 11 11 11 11 10 10 10 10 9 9 9 9 9 9 9 9 9
13 14 14 14 14 14 14 14 14 14 14 14 13 13 13 13 12 12 12 12 12 12 12 12 11 11 11 11 11 10 10 10 10 9 9 9 8 8 8 8 8 8 8
13 14 14 14 14 14 14 14 14 14 13 13 13 13 13 13 13 12 12 12 12 11 11 11 11 11 11 11 10 10 10 10 9 9 9 8 8 7 7 7 8 7 7
13 13 14 14 14 14 14 13 13 13 13 13 13 13 12 12 12 12 12 12 11 11 11 11 11 11 10 10 10 10 10 9 9 9 8 8 8 7 7 6 7 7 7
12 13 13 13 13 13 13 13 13 13 12 12 12 12 12 12 12 12 11 11 11 11 11 11 10 10 10 10 10 9 9 9 9 8 8 8 7 7 7 6 6 6 6
12 12 12 12 12 12 12 12 12 12 12 12 12 11 11 11 11 11 11 11 11 11 10 10 10 10 10 9 9 9 9 9 8 8 8 7 7 7 7 6 6 5 6
11 11 12 12 12 12 12 12 12 12 12 11 11 11 11 11 11 10 10 10 10 10 10 10 10 9 9 9 9 9 8 8 8 7 7 7 7 6 6 6 5 5 5
10 11 11 11 11 11 12 12 11 11 11 11 11 11 10 10 10 10 10 10 10 10 10 9 9 9 9 9 8 8 8 8 7 7 7 6 6 6 6 5 5 4 4
9 10 10 10 11 11 11 11 11 11 11 11 10 10 10 10 10 10 9 9 9 9 9 9 9 8 8 8 8 8 7 7 7 7 6 6 6 5 5 5 4 4 3
8 9 9 9 10 10 10 10 10 10 10 10 10 10 9 9 9 9 9 9 9 9 9 8 8 8 8 7 7 7 7 6 6 6 6 6 5 5 5 4 4 4 3
7 8 8 8 9 9 9 10 9 9 9 9 9 9 9 9 9 9 9 9 8 8 8 8 8 7 7 7 7 6 6 6 6 6 5 5 5 5 4 4 4 3 3
6 7 7 7 8 8 8 9 9 9 9 8 8 8 8 8 8 8 8 8 8 8 7 7 7 7 6 6 6 6 5 5 5 5 5 5 4 4 4 3 3 3 2
5 6 6 6 7 7 7 8 8 8 8 8 8 8 8 8 8 8 8 7 7 7 7 6 6 6 6 5 5 5 5 5 5 4 4 4 4 3 3 2 2 2 2
5 5 5 6 6 6 7 7 7 7 7 7 7 7 7 7 7 7 7 7 6 6 6 6 5 5 5 5 5 4 4 4 4 4 4 3 3 2 2 2 2 1 1
4 4 5 5 5 6 6 6 6 6 6 7 7 7 6 6 6 6 6 6 6 5 5 5 5 4 4 4 4 4 4 3 3 3 3 2 2 2 2 1 1 1 0
4 4 4 5 5 5 5 5 5 6 6 6 6 6 6 6 5 5 5 5 5 5 4 4 4 4 4 4 3 3 3 3 2 2 2 2 2 1 1 1 1 0 -0
3 4 4 4 4 5 5 5 5 5 5 5 5 5 5 5 5 4 4 4 4 4 4 4 4 3 3 3 3 2 2 2 2 1 1 1 1 1 0 -0 -0 -0 -1
3 3 4 4 4 4 4 4 4 4 4 4 4 4 4 4 4 4 4 3 3 3 3 3 3 3 2 2 2 1 1 1 1 1 0 0 0 -0 -1 -1 -1 -1 -1
3 3 3 3 3 3 3 3 3 3 3 3 4 3 3 3 3 3 3 3 3 3 2 2 2 2 2 1 1 1 0 0 -0 -0 -1 -1 -1 -1 -1 -1 -2 -2 -2
2 3 2 3 3 3 3 3 3 3 3 3 3 3 2 2 2 2 2 2 2 2 2 2 1 1 1 1 0 0 -0 -1 -1 -1 -1 -1 -2 -2 -2 -2 -2 -2 -3
2 2 2 2 2 2 2 2 2 2 2 2 2 2 2 2 2 2 1 1 1 1 1 1 1 0 0 0 -0 -1 -1 -1 -1 -2 -2 -2 -2 -2 -2 -3 -3 -3 -3
1 1 1 1 1 1 1 1 1 1 1 1 1 1 1 1 1 1 1 1 0 0 0 -0 -0 -0 -0 -1 -1 -1 -1 -2 -2 -2 -2 -2 -3 -3 -3 -3 -3 -3 -3
-0 0 0 0 1 0 0 0 0 0 0 0 0 0 0 0 0 -0 -0 -0 -0 -1 -1 -1 -1 -1 -1 -1 -2 -2 -2 -2 -2 -2 -3 -3 -3 -3 -3 -4 -4 -4 -4
-1 -1 -1 -0 -0 -0 -0 -0 -0 -0 -1 -0 -1 -1 -1 -1 -1 -1 -1 -1 -1 -1 -2 -2 -2 -2 -2 -2 -2 -3 -3 -3 -3 -3 -3 -3 -4 -4 -4 -4 -4 -4 -4
-2 -2 -1 -1 -1 -1 -1 -1 -1 -1 -1 -1 -1 -1 -1 -1 -1 -1 -1 -2 -2 -2 -2 -3 -3 -3 -3 -3 -3 -3 -3 -3 -3 -4 -4 -4 -4 -4 -4 -4 -4 -4 -5
Wind_Speed
5 4 5 5 5 5 6 7 7 6 6 5 5 4 4 3 2 2 4 6 7 7 6 4 3 4 3 3 3 3 3 2 1 2 2 3 2 2 2 2 2 3 4
4 4 5 5 6 7 7 7 7 7 7 6 5 4 4 3 2 2 3 5 6 6 6 5 4 4 3 3 3 3 2 1 2 2 1 2 3 3 2 2 1 2 3
9 7 6 6 6 7 8 8 8 7 7 6 5 4 3 3 2 2 2 2 5 6 6 6 5 4 4 4 4 4 4 3 1 1 2 2 2 2 3 2 2 2 2
7 7 7 7 7 7 6 6 7 7 7 7 7 7 5 4 4 3 3 2 3 4 5 5 5 5 4 4 4 4 3 4 2 1 1 1 2 1 2 2 2 3 3
8 8 8 8 6 6 6 5 6 6 6 6 8 7 5 4 3 2 3 2 2 3 4 5 5 4 4 4 4 3 3 3 3 2 1 1 1 1 1 3 3 3 2
6 6 5 5 4 4 4 5 6 5 5 6 6 7 7 6 5 4 4 3 2 2 2 4 4 4 4 4 4 4 4 3 3 3 2 2 2 2 2 3 4 4 3
6 5 5 5 4 4 5 5 6 5 5 6 6 6 7 7 7 6 6 4 3 2 3 3 4 4 4 4 4 4 4 4 4 3 2 3 2 2 2 2 4 4 4
5 6 6 6 5 5 5 5 5 5 5 5 5 5 5 5 4 5 5 5 4 4 4 4 3 3 4 4 4 3 3 3 3 3 3 2 2 2 2 2 2 4 4
5 5 4 4 5 5 5 6 6 5 4 5 5 4 4 4 4 4 3 3 3 3 4 4 4 3 3 4 4 3 3 3 3 3 3 2 2 2 2 2 3 3 5
2 2 3 3 3 3 3 3 4 5 4 4 4 4 3 4 4 4 4 3 3 3 4 4 3 3 3 3 4 3 2 3 2 2 2 2 2 1 2 2 2 3 4
2 2 2 1 2 3 3 4 3 4 3 3 3 4 3 3 3 3 4 4 3 3 4 4 4 3 3 3 3 3 3 3 2 1 2 2 2 2 2 2 2 3 3
2 2 2 3 3 3 3 3 3 3 3 3 3 3 3 3 3 3 3 3 3 3 4 4 4 3 3 3 3 3 2 3 2 2 2 2 1 2 2 2 3 3 4
4 4 4 4 3 3 3 3 3 3 2 3 4 3 3 3 3 3 3 3 3 3 3 4 3 3 2 2 2 3 2 2 2 2 2 2 2 3 3 3 3 3 4
4 4 4 4 3 3 3 3 3 2 3 3 3 3 2 2 2 2 3 3 3 4 3 3 3 3 3 3 3 3 2 2 1 1 2 2 3 3 3 3 4 3 4
4 4 3 3 3 3 3 3 3 2 3 3 3 2 2 2 2 2 3 3 3 3 3 3 2 2 2 3 3 3 2 2 1 0 1 2 3 4 4 4 3 3 4
3 3 3 3 3 2 2 2 2 2 3 3 2 2 2 2 3 3 3 3 3 3 3 3 3 2 1 2 2 2 2 2 2 1 1 2 2 4 5 6 7 6 5
2 2 2 2 1 2 2 2 1 2 3 3 2 2 2 2 2 3 3 3 3 3 2 2 2 2 1 2 2 1 1 2 2 2 2 2 3 5 3 5 7 7 8
2 2 2 2 2 2 2 2 3 3 3 3 2 2 2 2 2 3 2 2 2 2 2 1 1 1 1 2 2 1 1 1 1 2 2 3 3 4 4 4 4 4 5
1 1 2 2 2 2 2 3 3 3 3 2 2 1 2 2 2 2 2 1 2 1 1 1 1 1 2 2 2 1 1 1 1 2 2 3 3 6 6 4 5 6 6
3 3 3 3 3 2 2 3 3 3 2 1 1 1 1 2 2 2 1 1 1 1 1 0 1 1 2 2 2 1 1 1 1 2 3 4 5 6 7 5 5 6 6
4 4 3 3 2 2 2 3 2 1 1 1 1 2 1 1 1 1 1 1 1 1 1 0 1 1 2 2 3 2 1 2 2 2 3 3 6 8 8 7 5 7 7
4 4 4 3 3 2 3 3 2 1 1 2 2 2 1 1 1 1 1 1 2 1 0 0 1 1 1 2 2 3 3 3 2 3 3 4 7 8 9 7 7 9 7
3 3 3 3 3 3 2 2 1 2 2 2 2 1 1 1 1 1 1 1 1 1 1 1 1 2 1 2 3 4 3 3 3 3 4 6 7 7 6 6 8 7 3
3 3 3 3 3 3 3 1 1 2 2 2 1 1 1 1 1 1 0 1 1 1 2 2 2 2 2 2 2 2 2 2 3 2 4 5 6 5 5 6 5 3 3
3 3 2 2 2 3 3 2 1 2 2 1 1 1 1 1 1 1 0 1 2 3 3 3 2 2 3 4 5 4 3 2 2 3 2 2 3 3 3 3 4 3 3
3 3 3 3 3 3 3 3 2 1 1 1 1 0 1 1 1 1 2 3 2 3 3 3 3 3 4 5 5 5 5 5 4 3 2 2 3 3 4 4 4 4 4
Wind_Direction
225 199 186 170 161 161 162 168 166 169 162 162 163 163 175 178 173 164 157 157 156 156 150 151 146 144 155 159 149 131 105 74 71 75 22 2 6 20 12 19 31 22 7
209 200 187 176 175 177 175 175 177 177 177 174 171 169 164 161 167 155 144 160 160 160 161 160 164 160 157 148 147 138 127 91 67 109 95 357 348 356 351 358 7 357 6
207 203 195 194 186 186 185 184 182 180 175 164 145 130 109 97 130 160 179 175 163 163 159 160 159 160 164 168 168 156 149 156 98 87 136 141 244 310 327 337 339 336 343
210 205 198 195 195 196 188 179 177 174 170 164 162 160 165 177 190 184 183 169 151 156 159 157 158 162 166 172 178 168 164 155 161 116 77 146 161 178 309 316 326 330 327
205 202 200 198 194 182 175 172 167 168 168 167 168 167 166 173 165 147 147 155 159 151 153 156 155 165 172 176 174 170 165 165 168 168 163 132 97 167 202 282 303 319 306
203 199 189 175 172 162 159 159 161 169 169 167 169 170 168 164 156 164 171 175 176 178 162 152 157 166 171 178 180 174 168 173 169 169 170 173 179 202 209 259 289 299 301
192 184 173 170 170 166 166 163 164 171 173 170 173 176 177 175 176 179 181 179 182 194 197 172 171 172 175 172 165 169 176 178 176 183 196 198 212 206 213 246 282 292 294
191 188 185 178 175 174 168 164 170 177 175 174 177 177 177 178 181 181 180 184 191 196 184 175 172 172 166 160 155 165 180 176 183 192 195 206 223 218 215 217 255 296 296
199 192 185 178 174 173 175 173 170 174 174 172 167 166 170 171 171 172 173 175 180 173 161 163 163 160 153 154 153 171 182 175 188 192 197 216 230 225 229 216 215 232 285
188 170 168 172 168 166 158 145 154 161 160 161 166 164 166 168 169 165 168 172 171 153 151 151 152 154 154 157 155 162 173 167 187 194 188 218 237 237 240 228 235 230 245
170 152 134 127 119 116 121 122 124 126 131 143 145 147 155 160 160 164 173 173 161 154 161 161 157 160 165 165 159 172 175 168 183 199 197 226 236 249 261 253 253 253 248
94 95 99 91 88 96 103 113 118 122 133 136 133 141 143 142 148 159 169 161 158 154 155 152 153 158 164 169 164 174 180 178 190 211 212 242 255 258 267 263 262 264 259
71 73 78 81 86 87 90 96 106 116 118 123 127 128 130 136 147 154 150 148 147 144 139 145 153 154 157 163 166 170 180 183 194 211 221 247 244 267 276 273 270 271 276
75 78 74 70 75 83 88 89 83 94 111 120 126 128 136 143 149 146 138 142 145 145 146 148 149 150 153 162 164 159 172 168 187 216 232 251 251 255 262 273 269 273 282
58 68 74 68 68 68 64 73 73 70 96 115 120 130 127 118 117 121 123 125 130 137 139 132 129 138 156 170 161 167 174 172 184 242 282 282 283 284 285 283 277 279 282
57 55 60 66 63 63 58 60 61 56 85 107 113 111 113 114 116 121 122 122 122 124 124 135 148 160 188 183 185 177 176 181 182 217 288 292 294 300 308 304 297 290 284
65 64 58 64 57 55 69 74 61 63 78 93 100 103 111 115 117 116 116 122 131 130 134 148 155 171 201 209 201 205 181 174 192 220 249 285 292 309 298 298 303 300 295
73 64 59 55 44 45 55 62 63 67 77 82 82 91 109 112 109 112 121 128 130 142 150 159 167 177 219 231 222 213 141 168 216 236 244 258 275 284 288 291 298 297 299
90 79 65 60 58 50 58 74 65 65 71 73 70 78 116 122 122 128 139 128 134 132 156 171 169 188 244 247 239 232 152 195 262 269 268 269 269 280 295 300 296 301 302
57 56 47 56 59 39 64 85 77 71 67 64 105 105 117 130 151 160 153 129 140 160 163 159 178 203 238 247 248 234 180 215 270 289 279 282 288 292 301 299 293 298 300
51 58 62 59 47 47 81 95 84 59 351 18 72 77 90 125 156 146 145 140 131 119 130 155 286 245 235 250 260 255 232 219 254 277 285 286 297 302 304 305 296 291 301
45 54 64 52 35 47 82 84 64 15 44 70 78 75 69 78 94 117 114 128 139 135 171 201 323 306 266 261 264 264 272 280 269 271 278 287 299 304 308 309 305 308 315
42 47 65 58 35 33 71 86 24 26 53 71 72 70 64 61 94 128 132 122 145 165 225 225 261 292 294 284 296 286 279 287 293 277 288 300 305 310 311 309 310 314 313
31 39 55 54 27 20 41 66 42 45 67 74 67 70 75 46 42 53 118 171 204 211 232 243 255 279 292 281 278 275 271 282 296 301 303 310 312 313 311 312 314 311 294
26 36 45 40 14 14 20 27 45 72 67 58 77 76 63 75 40 19 304 270 239 225 232 238 242 247 264 269 281 290 284 281 285 319 326 328 321 315 312 311 309 307 306
39 43 37 33 13 11 6 4 20 67 100 85 62 79 74 52 41 18 358 347 327 313 305 286 276 272 273 288 293 297 301 305 309 328 310 303 301 298 299 303 305 303 299
Height
1471 1475 1478 1480 1483 1486 1489 1491 1494 1496 1499 1501 1503 1506 1508 1510 1512 1514 1516 1518 1519 1520 1522 1523 1524 1525 1525 1526 1527 1527 1527 1528 1528 1527 1527 1527 1527 1527 1527 1527 1527 1527 1526
1468 1471 1474 1477 1480 1482 1485 1488 1490 1493 1496 1498 1500 1503 1505 1507 1509 1511 1513 1515 1516 1518 1519 1520 1521 1522 1523 1523 1524 1524 1525 1525 1526 1525 1525 1524 1525 1524 1524 1524 1524 1523 1523
1463 1467 1470 1473 1476 1478 1481 1484 1487 1490 1492 1495 1497 1500 1502 1504 1506 1508 1510 1511 1513 1514 1515 1517 1518 1519 1520 1520 1521 1521 1522 1522 1523 1523 1524 1523 1521 1520 1520 1520 1520 1520 1519
1459 1462 1465 1468 1471 1474 1478 1481 1483 1486 1489 1491 1494 1496 1498 1500 1502 1504 1506 1508 1510 1511 1512 1514 1515 1516 1516 1517 1518 1519 1519 1519 1520 1520 1521 1521 1520 1519 1517 1517 1516 1516 1515
1455 1458 1461 1464 1467 1471 1474 1477 1480 1483 1485 1488 1490 1493 1495 1497 1500 1501 1503 1505 1506 1508 1509 1510 1511 1512 1513 1514 1515 1515 1516 1516 1517 1517 1517 1517 1517 1516 1515 1512 1512 1511 1511
1451 1454 1457 1460 1464 1467 1470 1473 1476 1479 1482 1484 1487 1489 1492 1494 1496 1498 1500 1501 1503 1504 1506 1507 1508 1509 1509 1510 1511 1512 1512 1513 1513 1513 1513 1513 1513 1512 1512 1509 1507 1506 1506
1447 1450 1453 1456 1459 1463 1466 1469 1472 1475 1478 1481 1483 1486 1488 1491 1492 1494 1496 1498 1499 1501 1502 1503 1504 1505 1506 1507 1507 1508 1508 1509 1509 1509 1510 1510 1509 1509 1509 1507 1504 1502 1500
1444 1446 1449 1452 1456 1459 1462 1465 1469 1472 1475 1477 1480 1482 1485 1487 1489 1491 1493 1494 1496 1497 1498 1499 1500 1501 1502 1503 1504 1504 1504 1505 1505 1505 1505 1505 1505 1505 1504 1504 1502 1498 1495
1441 1443 1446 1449 1452 1456 1459 1462 1465 1468 1471 1474 1476 1479 1481 1483 1485 1487 1489 1491 1492 1494 1495 1496 1497 1498 1499 1499 1500 1500 1501 1501 1501 1501 1501 1501 1501 1500 1500 1499 1498 1497 1492
1438 1441 1444 1447 1450 1453 1456 1459 1462 1465 1468 1470 1473 1475 1478 1480 1482 1484 1485 1487 1488 1490 1491 1492 1493 1494 1495 1496 1496 1496 1497 1497 1497 1497 1497 1496 1496 1496 1495 1495 1494 1492 1490
1437 1439 1442 1445 1448 1451 1453 1456 1459 1462 1465 1467 1470 1472 1474 1477 1478 1480 1481 1483 1485 1486 1487 1488 1489 1490 1491 1491 1492 1492 1493 1492 1492 1492 1492 1492 1491 1491 1491 1490 1489 1487 1486
1437 1439 1441 1443 1446 1448 1451 1454 1457 1459 1462 1465 1467 1469 1471 1473 1475 1476 1478 1479 1481 1482 1483 1484 1485 1486 1487 1487 1487 1488 1488 1488 1488 1488 1488 1487 1487 1486 1485 1485 1483 1482 1480
1437 1439 1441 1442 1444 1447 1449 1452 1455 1457 1460 1462 1464 1466 1468 1470 1471 1473 1475 1476 1477 1478 1479 1480 1481 1482 1482 1483 1483 1484 1484 1484 1484 1483 1483 1482 1482 1481 1480 1479 1478 1476 1475
1438 1439 1440 1442 1444 1447 1449 1451 1453 1456 1458 1460 1462 1464 1465 1467 1468 1470 1471 1472 1474 1475 1476 1476 1477 1478 1478 1479 1479 1480 1480 1480 1479 1479 1479 1478 1477 1476 1475 1474 1473 1471 1470
1439 1440 1441 1443 1445 1447 1448 1450 1453 1455 1456 1458 1459 1461 1463 1464 1465 1467 1468 1469 1470 1471 1472 1473 1474 1474 1475 1475 1475 1476 1476 1475 1475 1474 1474 1473 1472 1471 1471 1469 1468 1466 1464
1441 1442 1442 1444 1445 1446 1448 1450 1452 1453 1455 1456 1457 1459 1460 1461 1462 1464 1465 1466 1467 1468 1469 1469 1470 1471 1472 1472 1472 1472 1471 1471 1470 1469 1468 1468 1468 1467 1465 1464 1463 1462 1460
1442 1443 1444 1445 1446 1447 1448 1449 1450 1452 1453 1454 1455 1456 1457 1458 1460 1461 1462 1463 1464 1465 1465 1466 1467 1467 1468 1468 1468 1468 1467 1466 1465 1465 1464 1463 1463 1462 1460 1458 1457 1456 1454
1442 1443 1444 1445 1446 1447 1447 1449 1450 1451 1452 1453 1453 1454 1455 1456 1457 1458 1459 1460 1461 1461 1462 1463 1463 1464 1464 1464 1464 1464 1463 1462 1461 1461 1460 1459 1458 1457 1456 1454 1452 1450 1449
1442 1443 1444 1445 1445 1446 1447 1447 1448 1449 1450 1451 1452 1453 1453 1454 1455 1456 1456 1457 1458 1458 1459 1459 1460 1460 1460 1460 1460 1460 1459 1457 1457 1456 1456 1455 1454 1453 1452 1450 1448 1445 1443
1442 1443 1443 1444 1445 1445 1446 1446 1447 1448 1449 1449 1450 1451 1452 1452 1453 1453 1454 1454 1455 1455 1455 1456 1456 1456 1456 1456 1456 1456 1455 1453 1452 1452 1451 1451 1450 1449 1448 1446 1443 1440 1438
1442 1442 1443 1443 1444 1445 1445 1445 1446 1446 1447 1448 1448 1449 1450 1450 1451 1451 1451 1452 1452 1452 1452 1452 1452 1452 1452 1452 1452 1452 1451 1450 1449 1448 1447 1446 1446 1444 1443 1441 1439 1437 1435
1441 1441 1442 1443 1443 1444 1444 1444 1444 1445 1446 1446 1446 1447 1447 1448 1448 1448 1449 1449 1449 1449 1449 1449 1448 1448 1448 1449 1448 1448 1448 1447 1446 1444 1443 1442 1441 1440 1438 1436 1434 1432 1430
1440 1441 1441 1442 1442 1443 1443 1443 1444 1444 1444 1444 1444 1445 1445 1445 1446 1446 1446 1446 1446 1446 1445 1445 1444 1444 1444 1444 1445 1444 1444 1443 1442 1441 1440 1439 1437 1435 1433 1431 1429 1428 1425
1440 1440 1440 1441 1441 1441 1442 1442 1442 1442 1442 1442 1443 1443 1443 1443 1443 1443 1443 1443 1442 1442 1442 1441 1441 1441 1440 1441 1440 1440 1440 1439 1438 1437 1435 1434 1433 1431 1429 1427 1425 1423 1421
1439 1439 1439 1439 1439 1440 1440 1440 1440 1440 1441 1441 1441 1441 1441 1441 1441 1441 1441 1440 1440 1440 1439 1439 1439 1438 1437 1437 1438 1437 1436 1435 1434 1433 1431 1430 1428 1426 1425 1423 1421 1419 1417
1438 1438 1438 1438 1438 1438 1438 1439 1439 1439 1439 1439 1439 1439 1439 1438 1438 1438 1438 1438 1438 1437 1437 1437 1437 1436 1436 1435 1434 1434 1433 1432 1431 1429 1427 1426 1424 1423 1421 1419 1417 1415 1413